Regional Weather Roundup
Issued by NWS

Home | Current Version | Previous Version | Text Only | Print | Product List | Glossary Off
Versions: 1 2 3 4 5 6 7 8 9 10 11 12 13 14 15 16 17 18 19 20 21 22 23 24 25 26 27 28 29 30 31 32 33 34 35 36 37 38 39 40 41 42 43 44 45 46 47 48 49 50

000
ASUS43 KMKX 240421
RWRWI

WISCONSIN REGIONAL WEATHER ROUNDUP
NATIONAL WEATHER SERVICE MILWAUKEE/SULLIVAN WI
1100 PM CDT SUN APR 23 2017

NOTE: "FAIR" INDICATES FEW OR NO CLOUDS BELOW 12,000 FEET WITH NO
SIGNIFICANT WEATHER AND/OR OBSTRUCTIONS TO VISIBILITY.

WIZ001-002-006>008-014>016-023>028-240500-
NORTHWEST WISCONSIN

CITY           SKY/WX    TMP DP  RH WIND       PRES   REMARKS
SUPERIOR ARPT  CLOUDY    35  27  74 E13G20    30.07F WCI  26
ASHLAND        CLOUDY    35  29  78 NE10      30.08F WCI  27
HAYWARD        PTCLDY    37  29  72 E12       30.01F WCI  29
SIREN          CLOUDY    38  30  75 E8        29.97F WCI  32
CUMBERLAND     MOCLDY    39  32  75 NE13      29.96F WCI  32
RICE LAKE      MOCLDY    44  36  73 NE6       29.98S
CHETEK         MOCLDY    45  37  74 NE5       29.96F
LADYSMITH      PTCLDY    43  35  73 E8        30.01F
EAU CLAIRE     CLEAR     52  41  66 NE7       29.93R
MENOMONIE      PTCLDY    53  41  64 N7        29.93R
NEW RICHMOND   CLOUDY    47  37  70 E10       29.93S
OSCEOLA        CLOUDY    46  37  71 NE12      29.96S
$$

WIZ003>005-009-010-017-018-240500-
NORTH CENTRAL WISCONSIN

CITY           SKY/WX    TMP DP  RH WIND       PRES   REMARKS
MANITOWISH WTR MOCLDY    33  28  81 E7        30.06S WCI  26
ARBOR VITAE    PTCLDY    38  31  76 SE12      30.05F WCI  31
WOODRUFF       PTCLDY    38  31  76 SE12      30.05F WCI  31
RHINELANDER    PTCLDY    38  30  73 E9        30.07S WCI  31
EAGLE RIVER    CLEAR     34  25  69 E9        30.08S WCI  27
LAND O LAKES   CLEAR     32  26  77 E5        30.10F WCI  27
PHILLIPS       PTCLDY    38  32  79 E7        30.02F WCI  33
TOMAHAWK       CLEAR     38  32  79 E6        30.05F WCI  33
MEDFORD        CLEAR     42  35  75 E10G18    30.01S
MERRILL        CLEAR     40  32  73 SE10      30.06S WCI  34
$$

WIZ029-030-035-036-043>047-240500-
CENTRAL WISCONSIN

CITY           SKY/WX    TMP DP  RH WIND       PRES   REMARKS
WAUSAU         CLEAR     39  32  76 SE14G21   30.06R WCI  31
MOSINEE        CLEAR     37  32  81 E10       30.07R WCI  30
MARSHFIELD     CLEAR     42  36  79 E16       30.01S
STEVENS POINT  CLEAR     38  33  82 E12       30.07S WCI  30
WAUPACA        CLEAR     41  34  75 E9        30.09S
WAUTOMA        CLEAR     41  35  79 E10       30.08S
WISC RAPIDS    CLEAR     43  39  86 E14       30.05S
CAMP DOUGLAS   CLEAR     48  41  75 E13       30.01R
$$

WIZ011>013-019>022-031-037>040-048>050-240500-
NORTHEAST WISCONSIN

CITY           SKY/WX    TMP DP  RH WIND       PRES   REMARKS
ANTIGO         CLEAR     34  27  76 E12       30.08S WCI  25
SHAWANO        PTCLDY    39  31  72 E12       30.12S WCI  32
OCONTO         CLOUDY    38  27  64 NE6       30.13F WCI  33
STURGEON BAY   CLOUDY    38  25  59 NE12G18   30.13F WCI  30
GREEN BAY      PTCLDY    40  29  64 NE12      30.11F WCI  33
MANITOWOC      CLOUDY    39  29  67 NE9       30.11S WCI  33
APPLETON       PTCLDY    37  27  65 E10       30.08F WCI  30
CLINTONVILLE   CLEAR     37  32  81 E8        30.11S WCI  31
OSHKOSH        CLEAR     40  30  67 E10       30.09S WCI  33
$$

WIZ032>034-041-042-053>061-240500-
SOUTHWEST WISCONSIN

CITY           SKY/WX    TMP DP  RH WIND       PRES   REMARKS
LA CROSSE      CLEAR     57  40  52 SE5       29.94S
SPARTA         MOCLDY    54  43  67 E10       29.97S
VIROQUA        CLEAR     56  32  40 S8        29.97S
BOSCOBEL       CLEAR     49  42  77 CALM      29.98S
PRAIRIE DU CHI CLEAR     60  32  35 CALM      29.97S
PLATTEVILLE    CLEAR     55  38  53 S9        30.00S
$$

WIZ056-057-062-063-064-067-068-240500-
SOUTH CENTRAL WISCONSIN

CITY           SKY/WX    TMP DP  RH WIND       PRES   REMARKS
REEDSBURG      CLEAR     48  41  75 E9        30.02R
BARABOO/DELLS  CLEAR     46  38  74 E7        30.03S
LONE ROCK      CLEAR     51  42  71 E5        29.99S
MINERAL POINT  CLEAR     57  34  41 SE5       30.00S
MADISON        CLEAR     45  37  73 E8        30.04R
MIDDLETON      CLEAR     51  41  68 E7        30.03S
WATERTOWN      CLOUDY    39  36  88 E7        30.06S WCI  34
MONROE         CLOUDY    54  37  54 E5        30.02R
JANESVILLE     CLOUDY    46  37  71 E6        30.04S
$$

WIZ051-052-058>065-066-070>072-240500-
SOUTHEAST WISCONSIN

CITY           SKY/WX    TMP DP  RH WIND       PRES   REMARKS
MILWAUKEE      CLOUDY    40  34  79 N7        30.08F
WAUKESHA       CLOUDY    36  32  87 E6        30.07F WCI  31
MILWAUKEE/TIMM PTCLDY    37  32  81 NE5       30.08F WCI  34
RACINE         CLOUDY    39  34  82 N7        30.09F WCI  34
KENOSHA        PTCLDY    39  36  89 N3        30.07F
FOND DU LAC    CLEAR     39  30  70 NE9       30.09S WCI  33
SHEBOYGAN      CLOUDY    38  32  79 NE10      30.09F WCI  31
WEST BEND      PTCLDY    36  32  87 NE3       30.08F
JUNEAU         CLEAR     38  33  82 NE6       30.07S WCI  34
$$

LSZ147-162-240500-
LAKE SUPERIOR

STATION/POSITION TIME  TEMP    WIND        PRES    WAVE
                       AIR SEA DIR/SP/G            HT/PER
                 (UTC) (F)     (DEG/KT/KT) (MB)    (FT/S)
DEVILS ISLAND    0400   36      80/ 16/ 19 1020.9F
SAXON HARBOR     0340   38      70/  6/  9 1019.0F
$$

LMZ867-665-643>646-240500-
LAKE MICHIGAN

STATION/POSITION TIME  TEMP    WIND        PRES    WAVE
                       AIR SEA DIR/SP/G            HT/PER
                 (UTC) (F)     (DEG/KT/KT) (MB)    (FT/S)
CHAMBERS ISLAND  0340   37      20/ 17/ 19 1020.3F
N MID LAKE BUOY  0350   36 37   40/ 16/ 17 1022.1F   2/ 4
NORTHPORT PIER   0340   37      20/  7/ 10 1021.0F
SISTER BAY       0221   37      40/  8/  9   N/A
KEWAUNEE LAKESHO 0354   39      50/ 13/ 20 1019.4F
SHEBOYGAN LAKESH 0400   39      10/ 15/ 16 1019.3R
PORT WASHINGTON  0340   40      20/  5/ 10 1019.6F
MILWAUKEE LAKESH 0400   40     360/  7/  9   N/A
S MID LAKE BUOY  0350   40 40  360/  4/  6 1018.3F   3/ 6
KENOSHA   LAKESH 0400   41      10/  8/ 12 1018.3
$$

TC  - TEMPERATURE IN CELSIUS
VSB - VISIBILITY IN STATUTE MILES
WCI - WIND CHILL INDEX
HX  - HEAT INDEX





USA.gov is the U.S. government's official web portal to all federal, state and local government web resources and services.